Date String (YYYY-MM-DD hh:mm:ss) UTC,Instrument flags,Ambient pressure (hPa),Sample flow (lpm),Bypass flow (lpm),Sample temperature (°C),Ambient temperature (°C),ASC tube jacket temperature (°C),LED temperature (°C),Box temperature (°C),Sample RH (%),Span deviation,Mass concentration (μg/m³),Mass concentration (μg/m³),Mass concentration (μg/m³)
DateTimeUTC,F1_M11,P_M11,Q1_M11,Q2_M11,T1_M11,T2_M11,T3_M11,T4_M11,T5_M11,U1_M11,ZSPAN_M11,X0_M11,X2_M11,X1_M11
2021-09-10 03:00:00,,0829.8,5.00,0.00,29.2,27.5,00.0,38.2,30.9,12.2,-000.1,0036.53,0022.34,0020.59
2021-09-10 03:01:00,,0829.8,4.99,0.00,29.2,27.8,00.0,38.2,31.0,12.1,-000.1,0036.42,0022.31,0020.59
2021-09-10 03:02:00,,0829.8,5.00,0.00,29.2,28.0,00.0,38.2,31.1,12.0,-000.2,0037.51,0022.33,0020.61
2021-09-10 03:03:00,,0829.8,5.01,0.00,29.3,28.2,00.0,38.3,31.1,12.0,-000.1,0038.36,0022.31,0020.61
2021-09-10 03:04:00,,0829.8,4.99,0.00,29.3,28.4,00.0,38.3,31.2,12.0,0000.4,0039.04,0022.33,0020.63
2021-09-10 03:05:00,,0829.8,4.99,0.00,29.4,28.5,00.0,38.3,31.3,11.9,0000.2,0039.55,0022.36,0020.65
2021-09-10 03:06:00,,0829.8,5.00,0.00,29.4,28.5,00.0,38.3,31.3,11.9,0000.1,0040.02,0022.29,0020.60
2021-09-10 03:07:00,,0829.8,5.00,0.00,29.4,26.8,00.0,38.3,30.8,11.9,0000.4,0039.99,0022.28,0020.57
2021-09-10 03:08:00,,0829.8,5.00,0.00,29.2,25.3,00.0,38.3,30.4,12.0,0000.6,0039.90,0022.26,0020.56
2021-09-10 03:09:00,,0829.8,5.01,0.00,29.1,25.5,00.0,38.3,30.4,12.1,0000.6,0039.96,0022.26,0020.57
2021-09-10 03:10:00,,0829.8,5.00,0.00,29.0,25.9,00.0,38.2,30.5,12.2,0000.9,0038.71,0022.30,0020.56
2021-09-10 03:11:00,,0829.8,5.00,0.00,29.0,26.4,00.0,38.2,30.6,12.1,0001.1,0037.84,0022.32,0020.57
2021-09-10 03:12:00,,0829.9,4.99,0.00,29.0,26.9,00.0,38.2,30.7,12.1,0001.0,0037.54,0022.27,0020.57
2021-09-10 03:13:00,,0829.9,4.99,0.00,29.0,27.3,00.0,38.2,30.8,12.1,0001.2,0036.90,0022.27,0020.59
2021-09-10 03:14:00,,0829.9,5.01,0.00,29.1,27.6,00.0,38.2,30.9,12.1,0002.2,0036.41,0022.28,0020.61
2021-09-10 03:15:00,,0829.9,5.00,0.00,29.1,27.8,00.0,38.2,30.9,12.1,0002.1,0036.59,0022.28,0020.63
2021-09-10 03:16:00,,0829.9,5.00,0.00,29.2,28.0,00.0,38.2,31.0,12.0,0002.1,0036.72,0022.24,0020.63
2021-09-10 03:17:00,,0829.9,5.00,0.00,29.2,28.2,00.0,38.2,31.1,11.9,0001.4,0036.52,0022.26,0020.63
2021-09-10 03:18:00,,0829.9,5.01,0.00,29.3,28.3,00.0,38.2,31.1,11.9,0001.3,0036.58,0022.31,0020.64
2021-09-10 03:19:00,,0829.9,4.99,0.00,29.3,28.5,00.0,38.2,31.2,11.9,0001.7,0037.12,0022.31,0020.66
2021-09-10 03:20:00,,0830.0,5.02,0.00,29.4,28.6,00.0,38.3,31.2,11.8,0001.9,0037.70,0022.31,0020.65
2021-09-10 03:21:00,,0829.9,5.00,0.00,29.4,28.7,00.0,38.3,31.3,11.8,0001.5,0038.06,0022.32,0020.63
2021-09-10 03:22:00,,0829.8,5.00,0.00,29.4,27.8,00.0,38.3,31.1,11.7,0001.1,0038.83,0022.33,0020.60
2021-09-10 03:23:00,,0829.8,5.01,0.00,29.3,25.8,00.0,38.3,30.6,11.8,0000.9,0039.67,0022.37,0020.57
2021-09-10 03:24:00,,0829.9,5.00,0.00,29.1,25.3,00.0,38.3,30.4,11.9,0000.7,0039.35,0022.32,0020.51
2021-09-10 03:25:00,,0829.9,5.00,0.00,29.0,25.7,00.0,38.2,30.5,11.9,-000.1,0039.39,0022.27,0020.47
2021-09-10 03:26:00,,0829.9,4.99,0.00,29.0,26.2,00.0,38.2,30.6,11.9,-000.5,0038.47,0022.25,0020.41
2021-09-10 03:27:00,,0829.9,5.01,0.00,29.0,26.7,00.0,38.2,30.7,11.9,-000.5,0037.88,0022.29,0020.38
2021-09-10 03:28:00,,0829.9,4.99,0.00,29.0,27.1,00.0,38.1,30.8,11.9,-000.5,0037.31,0022.22,0020.37
2021-09-10 03:29:00,,0830.0,5.00,0.00,29.1,27.4,00.0,38.1,30.8,11.9,-000.9,0037.11,0022.08,0020.32
2021-09-10 03:30:00,,0830.0,5.00,0.00,29.1,27.7,00.0,38.2,30.9,11.9,-001.2,0037.41,0022.06,0020.25
2021-09-10 03:31:00,,0830.0,5.01,0.00,29.1,27.9,00.0,38.2,30.9,11.9,-001.2,0036.45,0021.97,0020.20
2021-09-10 03:32:00,,0830.1,4.99,0.00,29.2,28.1,00.0,38.2,31.0,11.8,-001.1,0036.25,0021.86,0020.17
2021-09-10 03:33:00,,0830.1,4.99,0.00,29.2,28.3,00.0,38.2,31.1,11.8,-001.2,0035.10,0021.77,0020.16
2021-09-10 03:34:00,,0830.1,5.01,0.00,29.3,28.4,00.0,38.2,31.1,11.8,-001.2,0034.98,0021.69,0020.17
2021-09-10 03:35:00,,0830.1,5.00,0.00,29.3,28.5,00.0,38.2,31.2,11.7,-001.0,0034.96,0021.69,0020.17
2021-09-10 03:36:00,,0830.1,5.00,0.00,29.4,28.6,00.0,38.3,31.2,11.6,-000.6,0035.05,0021.75,0020.18
2021-09-10 03:37:00,,0830.1,4.99,0.00,29.4,28.7,00.0,38.3,31.3,11.6,-000.6,0036.11,0021.77,0020.20
2021-09-10 03:38:00,,0830.1,5.00,0.00,29.5,28.6,00.0,38.3,31.3,11.6,-000.6,0036.78,0021.71,0020.19
2021-09-10 03:39:00,,0830.1,5.00,0.00,29.4,26.8,00.0,38.3,30.9,11.6,-000.4,0037.23,0021.78,0020.20
2021-09-10 03:40:00,,0830.1,4.99,0.00,29.2,25.3,00.0,38.3,30.5,11.7,0000.2,0037.23,0021.86,0020.21
2021-09-10 03:41:00,,0830.1,5.01,0.00,29.1,25.5,00.0,38.3,30.5,11.8,-000.1,0036.83,0021.89,0020.25
2021-09-10 03:42:00,,0830.1,5.00,0.00,29.0,25.9,00.0,38.2,30.5,11.8,-000.6,0036.77,0021.88,0020.26
2021-09-10 03:43:00,,0830.1,5.01,0.00,29.0,26.4,00.0,38.2,30.6,11.8,-000.6,0036.91,0021.91,0020.28
2021-09-10 03:44:00,,0830.1,5.00,0.00,29.0,26.9,00.0,38.2,30.7,11.8,-000.1,0038.13,0021.91,0020.26
2021-09-10 03:45:00,,0830.1,5.00,0.00,29.1,27.2,00.0,38.2,30.8,11.8,0000.2,0037.57,0021.94,0020.24
2021-09-10 03:46:00,,0830.1,5.01,0.00,29.1,27.5,00.0,38.2,30.9,11.8,0000.3,0038.09,0021.94,0020.24
2021-09-10 03:47:00,,0830.1,5.00,0.00,29.1,27.8,00.0,38.2,30.9,11.7,0000.1,0037.75,0021.89,0020.21
2021-09-10 03:48:00,,0830.1,4.99,0.00,29.2,28.0,00.0,38.2,31.0,11.7,0000.6,0037.17,0021.80,0020.17
2021-09-10 03:49:00,,0830.1,5.01,0.00,29.2,28.2,00.0,38.2,31.0,11.6,0000.8,0036.94,0021.80,0020.17
2021-09-10 03:50:00,,0830.1,5.00,0.00,29.3,28.3,00.0,38.2,31.1,11.6,0001.2,0036.85,0021.73,0020.12
2021-09-10 03:51:00,,0830.1,5.01,0.00,29.3,28.4,00.0,38.2,31.2,11.6,0001.1,0036.62,0021.59,0020.05
2021-09-10 03:52:00,,0830.1,5.00,0.00,29.4,28.5,00.0,38.3,31.2,11.6,0002.0,0036.52,0021.50,0020.00
2021-09-10 03:53:00,,0830.1,4.99,0.00,29.4,28.6,00.0,38.3,31.3,11.5,0002.2,0036.94,0021.52,0019.97
2021-09-10 03:54:00,,0830.1,5.01,0.00,29.4,28.7,00.0,38.3,31.3,11.5,0002.4,0036.39,0021.52,0019.95
2021-09-10 03:55:00,,0830.1,5.00,0.00,29.5,28.6,00.0,38.4,31.3,11.4,0001.9,0035.03,0021.53,0019.94
2021-09-10 03:56:00,,0830.1,5.01,0.00,29.4,27.0,00.0,38.4,30.9,11.4,0001.1,0034.72,0021.53,0019.93
2021-09-10 03:57:00,,0830.0,4.97,0.00,29.2,25.3,00.0,38.3,30.4,11.5,0001.5,0034.32,0021.52,0019.90
2021-09-10 03:58:00,,0830.1,5.01,0.00,29.1,25.4,00.0,38.3,30.4,11.6,0001.3,0034.66,0021.54,0019.89
2021-09-10 03:59:00,,0830.1,5.01,0.00,29.1,25.8,00.0,38.3,30.5,11.7,0001.4,0034.47,0021.51,0019.88
